Time,TemperatureF,DewpointF,PressureIn,WindDirection,WindDirectionDegrees,WindSpeedMPH,WindSpeedGustMPH,Humidity,HourlyPrecipIn,Conditions,Clouds,dailyrainin,SoftwareType,DateUTC
2013-03-08 00:01:00,32.0,-2.0,-100.00,ESE,116,3.0,5.0,23,0.00,,,0.00,,2013-03-08 07:01:00,
2013-03-08 00:11:00,32.0,-2.0,-100.00,ESE,116,3.0,5.0,23,0.00,,,0.00,,2013-03-08 07:11:00,
2013-03-08 00:22:00,32.0,-2.0,-100.00,ESE,116,3.0,5.0,23,0.00,,,0.00,,2013-03-08 07:22:00,
2013-03-08 00:52:00,32.0,-3.0,-100.00,SSE,153,8.0,11.0,21,0.00,,,0.00,,2013-03-08 07:52:00,
2013-03-08 01:01:00,32.0,-3.0,-100.00,SSE,153,8.0,11.0,21,0.00,,,0.00,,2013-03-08 08:01:00,
2013-03-08 01:11:00,32.0,-3.0,-100.00,SSE,153,8.0,11.0,21,0.00,,,0.00,,2013-03-08 08:11:00,
2013-03-08 01:22:00,32.0,-3.0,-100.00,SSE,153,8.0,11.0,21,0.00,,,0.00,,2013-03-08 08:22:00,
2013-03-08 01:52:00,32.0,-1.0,-100.00,SSE,153,8.0,14.0,24,0.00,,,0.00,,2013-03-08 08:52:00,
2013-03-08 02:03:00,32.0,-1.0,-100.00,SSE,153,8.0,14.0,24,0.00,,,0.00,,2013-03-08 09:03:00,
2013-03-08 02:11:00,32.0,-1.0,-100.00,SSE,153,8.0,14.0,24,0.00,,,0.00,,2013-03-08 09:11:00,
2013-03-08 02:21:00,32.0,-1.0,-100.00,SSE,153,8.0,14.0,24,0.00,,,0.00,,2013-03-08 09:21:00,
2013-03-08 02:52:00,32.0,3.0,-100.00,SSE,152,6.0,12.0,28,0.00,,,0.00,,2013-03-08 09:52:00,
2013-03-08 03:01:00,32.0,3.0,-100.00,SSE,152,6.0,12.0,28,0.00,,,0.00,,2013-03-08 10:01:00,
2013-03-08 03:11:00,32.0,3.0,-100.00,SSE,152,6.0,12.0,28,0.00,,,0.00,,2013-03-08 10:11:00,
2013-03-08 03:21:00,32.0,3.0,-100.00,SSE,152,6.0,12.0,28,0.00,,,0.00,,2013-03-08 10:21:00,
2013-03-08 03:52:00,32.0,5.0,-100.00,SSE,149,8.0,11.0,31,0.00,,,0.00,,2013-03-08 10:52:00,
2013-03-08 04:01:00,32.0,5.0,-100.00,SSE,149,8.0,11.0,31,0.00,,,0.00,,2013-03-08 11:01:00,
2013-03-08 04:11:00,32.0,5.0,-100.00,SSE,149,8.0,11.0,31,0.00,,,0.00,,2013-03-08 11:11:00,
2013-03-08 04:21:00,32.0,5.0,-100.00,SSE,149,8.0,11.0,31,0.00,,,0.00,,2013-03-08 11:21:00,
2013-03-08 04:52:00,31.0,5.0,-100.00,SSE,148,3.0,11.0,33,0.00,,,0.00,,2013-03-08 11:52:00,
2013-03-08 05:02:00,31.0,5.0,-100.00,SSE,148,3.0,11.0,33,0.00,,,0.00,,2013-03-08 12:02:00,
2013-03-08 05:11:00,31.0,5.0,-100.00,SSE,148,3.0,11.0,33,0.00,,,0.00,,2013-03-08 12:11:00,
2013-03-08 05:22:00,31.0,5.0,-100.00,SSE,148,3.0,11.0,33,0.00,,,0.00,,2013-03-08 12:22:00,
2013-03-08 05:53:00,30.0,6.0,-100.00,WNW,285,5.0,9.0,35,0.00,,,0.00,,2013-03-08 12:53:00,
2013-03-08 06:01:00,30.0,6.0,-100.00,WNW,285,5.0,9.0,35,0.00,,,0.00,,2013-03-08 13:01:00,
2013-03-08 06:11:00,30.0,6.0,-100.00,WNW,285,5.0,9.0,35,0.00,,,0.00,,2013-03-08 13:11:00,
2013-03-08 06:21:00,30.0,6.0,-100.00,WNW,285,5.0,9.0,35,0.00,,,0.00,,2013-03-08 13:21:00,
2013-03-08 06:52:00,28.0,5.0,-100.00,East,81,0.0,5.0,36,0.00,,,0.00,,2013-03-08 13:52:00,
2013-03-08 07:02:00,28.0,5.0,-100.00,East,81,0.0,5.0,36,0.00,,,0.00,,2013-03-08 14:02:00,
2013-03-08 07:11:00,28.0,5.0,-100.00,East,81,0.0,5.0,36,0.00,,,0.00,,2013-03-08 14:11:00,
2013-03-08 07:22:00,28.0,5.0,-100.00,East,81,0.0,5.0,36,0.00,,,0.00,,2013-03-08 14:22:00,
2013-03-08 07:53:00,32.0,7.0,-100.00,SE,144,6.0,8.0,34,0.00,,,0.00,,2013-03-08 14:53:00,
2013-03-08 08:03:00,32.0,7.0,-100.00,SE,144,6.0,8.0,34,0.00,,,0.00,,2013-03-08 15:03:00,
2013-03-08 08:11:00,32.0,7.0,-100.00,SE,144,6.0,8.0,34,0.00,,,0.00,,2013-03-08 15:11:00,
2013-03-08 08:22:00,32.0,7.0,-100.00,SE,144,6.0,8.0,34,0.00,,,0.00,,2013-03-08 15:22:00,
2013-03-08 08:53:00,32.0,7.0,-100.00,WSW,244,5.0,10.0,35,0.00,,,0.00,,2013-03-08 15:53:00,
2013-03-08 09:01:00,32.0,7.0,-100.00,WSW,244,5.0,10.0,35,0.00,,,0.00,,2013-03-08 16:01:00,
2013-03-08 09:11:00,32.0,7.0,-100.00,WSW,244,5.0,10.0,35,0.00,,,0.00,,2013-03-08 16:11:00,
2013-03-08 09:22:00,32.0,7.0,-100.00,WSW,244,5.0,10.0,35,0.00,,,0.00,,2013-03-08 16:22:00,
2013-03-08 09:52:00,38.0,9.0,-100.00,North,1,3.0,6.0,30,0.00,,,0.00,,2013-03-08 16:52:00,
2013-03-08 10:02:00,38.0,9.0,-100.00,North,1,3.0,6.0,30,0.00,,,0.00,,2013-03-08 17:02:00,
2013-03-08 10:11:00,38.0,9.0,-100.00,North,1,3.0,6.0,30,0.00,,,0.00,,2013-03-08 17:11:00,
2013-03-08 10:21:00,38.0,9.0,-100.00,North,1,3.0,6.0,30,0.00,,,0.00,,2013-03-08 17:21:00,
2013-03-08 10:52:00,44.0,11.0,-100.00,SSW,203,3.0,6.0,26,0.00,,,0.00,,2013-03-08 17:52:00,
2013-03-08 11:02:00,44.0,11.0,-100.00,SSW,203,3.0,6.0,26,0.00,,,0.00,,2013-03-08 18:02:00,
2013-03-08 11:11:00,44.0,11.0,-100.00,SSW,203,3.0,6.0,26,0.00,,,0.00,,2013-03-08 18:11:00,
2013-03-08 11:21:00,44.0,11.0,-100.00,SSW,203,3.0,6.0,26,0.00,,,0.00,,2013-03-08 18:21:00,
2013-03-08 11:52:00,43.0,10.0,-100.00,WNW,290,8.0,12.0,26,0.00,,,0.00,,2013-03-08 18:52:00,
2013-03-08 12:01:00,43.0,10.0,-100.00,WNW,290,8.0,12.0,26,0.00,,,0.00,,2013-03-08 19:01:00,
2013-03-08 12:11:00,43.0,10.0,-100.00,WNW,290,8.0,12.0,26,0.00,,,0.00,,2013-03-08 19:11:00,
2013-03-08 12:22:00,43.0,10.0,-100.00,WNW,290,8.0,12.0,26,0.00,,,0.00,,2013-03-08 19:22:00,
2013-03-08 12:52:00,44.0,11.0,-100.00,WSW,251,8.0,13.0,26,0.00,,,0.00,,2013-03-08 19:52:00,
2013-03-08 13:01:00,44.0,11.0,-100.00,WSW,251,8.0,13.0,26,0.00,,,0.00,,2013-03-08 20:01:00,
2013-03-08 13:11:00,44.0,11.0,-100.00,WSW,251,8.0,13.0,26,0.00,,,0.00,,2013-03-08 20:11:00,
2013-03-08 13:21:00,44.0,11.0,-100.00,WSW,251,8.0,13.0,26,0.00,,,0.00,,2013-03-08 20:21:00,
2013-03-08 13:53:00,36.0,11.0,-100.00,WSW,258,7.0,15.0,35,0.00,,,0.00,,2013-03-08 20:53:00,
2013-03-08 14:02:00,36.0,11.0,-100.00,WSW,258,7.0,15.0,35,0.00,,,0.00,,2013-03-08 21:02:00,
2013-03-08 14:11:00,36.0,11.0,-100.00,WSW,258,7.0,15.0,35,0.00,,,0.00,,2013-03-08 21:11:00,
2013-03-08 14:21:00,36.0,11.0,-100.00,WSW,258,7.0,15.0,35,0.00,,,0.00,,2013-03-08 21:21:00,
2013-03-08 14:52:00,39.0,12.0,-100.00,SW,227,10.0,17.0,32,0.00,,,0.00,,2013-03-08 21:52:00,
2013-03-08 15:01:00,39.0,12.0,-100.00,SW,227,10.0,17.0,32,0.00,,,0.00,,2013-03-08 22:01:00,
2013-03-08 15:11:00,39.0,12.0,-100.00,SW,227,10.0,17.0,32,0.00,,,0.00,,2013-03-08 22:11:00,
2013-03-08 15:22:00,39.0,12.0,-100.00,SW,227,10.0,17.0,32,0.00,,,0.00,,2013-03-08 22:22:00,
2013-03-08 15:53:00,37.0,16.0,-100.00,SW,236,9.0,22.0,41,0.00,,,0.00,,2013-03-08 22:53:00,
2013-03-08 16:01:00,37.0,16.0,-100.00,SW,236,9.0,22.0,41,0.00,,,0.00,,2013-03-08 23:01:00,
2013-03-08 16:12:00,37.0,16.0,-100.00,SW,236,9.0,22.0,41,0.00,,,0.00,,2013-03-08 23:12:00,
2013-03-08 16:21:00,37.0,16.0,-100.00,SW,236,9.0,22.0,41,0.00,,,0.00,,2013-03-08 23:21:00,
2013-03-08 16:53:00,34.0,16.0,-100.00,SSW,206,12.0,25.0,47,0.00,,,0.00,,2013-03-08 23:53:00,
2013-03-08 17:02:00,34.0,16.0,-100.00,SSW,206,12.0,25.0,47,0.00,,,0.00,,2013-03-09 00:02:00,
2013-03-08 17:11:00,34.0,16.0,-100.00,SSW,206,12.0,25.0,47,0.00,,,0.00,,2013-03-09 00:11:00,
2013-03-08 17:22:00,34.0,16.0,-100.00,SSW,206,12.0,25.0,47,0.00,,,0.00,,2013-03-09 00:22:00,
2013-03-08 17:52:00,31.0,21.0,-100.00,NW,304,2.0,20.0,66,0.00,,,0.00,,2013-03-09 00:52:00,
2013-03-08 18:01:00,31.0,21.0,-100.00,NW,304,2.0,20.0,66,0.00,,,0.00,,2013-03-09 01:01:00,
2013-03-08 18:12:00,31.0,21.0,-100.00,NW,304,2.0,20.0,66,0.00,,,0.00,,2013-03-09 01:12:00,
2013-03-08 18:22:00,31.0,21.0,-100.00,NW,304,2.0,20.0,66,0.00,,,0.00,,2013-03-09 01:22:00,
2013-03-08 20:52:00,25.0,19.0,-100.00,WSW,245,4.0,8.0,78,-99.99,,,0.00,,2013-03-09 03:52:00,
2013-03-08 21:01:00,25.0,19.0,-100.00,WSW,245,4.0,8.0,78,-99.99,,,0.00,,2013-03-09 04:01:00,
2013-03-08 21:11:00,25.0,19.0,-100.00,WSW,245,4.0,8.0,78,-99.99,,,0.00,,2013-03-09 04:11:00,
2013-03-08 21:22:00,25.0,19.0,-100.00,WSW,245,4.0,8.0,78,-99.99,,,0.00,,2013-03-09 04:22:00,
2013-03-08 21:52:00,23.0,20.0,-100.00,WNW,298,0.0,5.0,87,0.00,,,0.00,,2013-03-09 04:52:00,
2013-03-08 22:02:00,23.0,20.0,-100.00,WNW,298,0.0,5.0,87,0.00,,,0.00,,2013-03-09 05:02:00,
2013-03-08 22:12:00,23.0,20.0,-100.00,WNW,298,0.0,5.0,87,0.00,,,0.00,,2013-03-09 05:12:00,
2013-03-08 22:22:00,23.0,20.0,-100.00,WNW,298,0.0,5.0,87,0.00,,,0.00,,2013-03-09 05:22:00,
2013-03-08 22:53:00,23.0,21.0,-100.00,SSW,200,1.0,3.0,91,0.00,,,0.00,,2013-03-09 05:53:00,
2013-03-08 23:02:00,23.0,21.0,-100.00,SSW,200,1.0,3.0,91,0.00,,,0.00,,2013-03-09 06:02:00,
2013-03-08 23:11:00,23.0,21.0,-100.00,SSW,200,1.0,3.0,91,0.00,,,0.00,,2013-03-09 06:11:00,
2013-03-08 23:22:00,23.0,21.0,-100.00,SSW,200,1.0,3.0,91,0.00,,,0.00,,2013-03-09 06:22:00,
2013-03-08 23:52:00,22.0,20.0,-100.00,NNE,24,2.0,5.0,91,0.00,,,0.00,,2013-03-09 06:52:00,